Weather History for Jamestown, NY

Change the Weather History Date:

Sunday, April 22, 2012

  Actual Average Record
Temperature  
Mean Temperature 36 °F -  
Max Temperature 39 °F 59 °F 83 °F (1985)
Min Temperature 33 °F 34 °F 21 °F (1975)
Degree Days  
Heating Degree Days 29    
Moisture  
Dew Point 32 °F    
Average Humidity 86    
Maximum Humidity 93    
Minimum Humidity 75    
Precipitation  
Precipitation 0.00 in - - ()
Sea Level Pressure  
Sea Level Pressure 29.85 in    
Wind  
Wind Speed 9 mph (NNE)    
Max Wind Speed 18 mph    
Max Gust Speed 32 mph    
Visibility 10 miles    
Events      
Averages and records for this station are not official NWS values.
T = Trace of Precipitation, MM = Missing Value Source: NWS Daily Summary

Daily Weather History Graph

Daily Weather History Graph

Search for Another Location

Airport:

Trip Planner

Search our weather history database for the weather conditions in past years. The results will help you decide how hot, cold, wet, or windy it might be!

Date:

Astronomy

Apr. 22, 2012 Rise Set
Actual Time 6:24 AM EDT 8:06 PM EDT
Civil Twilight 5:55 AM EDT 8:36 PM EDT
Nautical Twilight 5:19 AM EDT 9:12 PM EDT
Astronomical Twilight 4:40 AM EDT 9:51 PM EDT
Moon 6:53 AM EDT (4/22) 9:44 PM EDT (4/22)
Length of Visible Light 14h 41m
Length of Day
13h 41m
New Moon, 2% of the Moon is Illuminated
Apr 22
New Moon
Apr 29
First Quarter
May 5
Full
May 12
Last Quarter
May 20
New

Hourly Weather History & Observations

Time (EDT) Temp. Windchill Dew Point Humidity Pressure Visibility Wind Dir Wind Speed Gust Speed Precip Events Conditions
12:15 AM 35.6 °F 29.9 °F 33.8 °F 93% 29.91 in 10.0 mi NNE 6.9 mph - N/A   Overcast
12:35 AM 35.6 °F 29.2 °F 33.8 °F 93% 29.90 in 10.0 mi North 8.1 mph - N/A   Overcast
12:55 AM 35.6 °F 31.7 °F 33.8 °F 93% 29.91 in 10.0 mi North 4.6 mph - N/A   Overcast
1:15 AM 35.6 °F 29.9 °F 33.8 °F 93% 29.90 in 10.0 mi NNE 6.9 mph - N/A   Overcast
1:35 AM 35.6 °F 30.7 °F 33.8 °F 93% 29.89 in 10.0 mi NNE 5.8 mph - N/A   Overcast
1:55 AM 35.6 °F 29.2 °F 33.8 °F 93% 29.89 in 10.0 mi NNE 8.1 mph - N/A   Overcast
2:15 AM 35.6 °F 30.7 °F 33.8 °F 93% 29.89 in 10.0 mi NNE 5.8 mph - N/A   Overcast
2:55 AM 35.6 °F 31.7 °F 33.8 °F 93% 29.90 in 10.0 mi NNE 4.6 mph - N/A   Overcast
3:15 AM 35.6 °F 30.7 °F 33.8 °F 93% 29.89 in 10.0 mi NNE 5.8 mph - N/A   Overcast
3:35 AM 35.6 °F 28.6 °F 33.8 °F 93% 29.88 in 4.0 mi North 9.2 mph - N/A   Overcast
3:55 AM 35.6 °F 29.9 °F 32.0 °F 87% 29.88 in 10.0 mi North 6.9 mph - N/A   Overcast
4:15 AM 33.8 °F 26.4 °F 32.0 °F 93% 29.87 in 10.0 mi North 9.2 mph - N/A   Overcast
4:35 AM 33.8 °F 27.0 °F 30.2 °F 87% 29.87 in 10.0 mi NNE 8.1 mph - N/A   Overcast
4:55 AM 33.8 °F 27.0 °F 30.2 °F 87% 29.87 in 10.0 mi NNE 8.1 mph - N/A   Overcast
5:15 AM 33.8 °F 27.0 °F 32.0 °F 93% 29.87 in 10.0 mi NNE 8.1 mph - N/A   Overcast
5:35 AM 35.6 °F 30.7 °F 30.2 °F 81% 29.87 in 10.0 mi NNE 5.8 mph - N/A   Overcast
5:55 AM 33.8 °F 28.6 °F 30.2 °F 87% 29.88 in 10.0 mi North 5.8 mph - N/A   Overcast
6:15 AM 33.8 °F 27.0 °F 30.2 °F 87% 29.88 in 8.0 mi North 8.1 mph - N/A   Overcast
6:35 AM 33.8 °F 28.6 °F 30.2 °F 87% 29.88 in 10.0 mi NNE 5.8 mph - N/A   Overcast
6:55 AM 33.8 °F 26.4 °F 30.2 °F 87% 29.86 in 4.0 mi NNE 9.2 mph - N/A   Overcast
7:15 AM 33.8 °F 26.4 °F 30.2 °F 87% 29.87 in 9.0 mi NNE 9.2 mph - N/A   Overcast
7:35 AM 33.8 °F 29.6 °F 30.2 °F 87% 29.89 in 10.0 mi NNE 4.6 mph - N/A   Overcast
7:55 AM 33.8 °F 27.0 °F 32.0 °F 93% 29.89 in 10.0 mi North 8.1 mph - N/A   Overcast
8:15 AM 33.8 °F 28.6 °F 30.2 °F 87% 29.89 in 10.0 mi NNE 5.8 mph - N/A   Overcast
8:35 AM 35.6 °F 29.2 °F 30.2 °F 81% 29.90 in 10.0 mi NNE 8.1 mph - N/A   Overcast
8:55 AM 33.8 °F 25.8 °F 30.2 °F 87% 29.90 in 5.0 mi NNE 10.4 mph - N/A   Overcast
9:15 AM 35.6 °F 28.6 °F 30.2 °F 81% 29.90 in 10.0 mi NE 9.2 mph - N/A   Overcast
9:35 AM 35.6 °F 28.6 °F 30.2 °F 81% 29.89 in 10.0 mi NE 9.2 mph - N/A   Overcast
9:55 AM 37.4 °F 29.8 °F 32.0 °F 81% 29.88 in 10.0 mi NE 11.5 mph 19.6 mph N/A   Overcast
10:15 AM 37.4 °F 30.8 °F 33.8 °F 87% 29.88 in 10.0 mi NNE 9.2 mph - N/A   Overcast
10:35 AM 37.4 °F 29.8 °F 33.8 °F 87% 29.87 in 10.0 mi NNE 11.5 mph 16.1 mph N/A   Overcast
10:55 AM 39.2 °F 31.6 °F 32.0 °F 75% 29.87 in 10.0 mi NE 12.7 mph 17.3 mph N/A   Overcast
11:15 AM 37.4 °F 29.8 °F 32.0 °F 81% 29.87 in 10.0 mi NE 11.5 mph - N/A   Overcast
11:35 AM 37.4 °F 29.8 °F 32.0 °F 81% 29.87 in 10.0 mi NE 11.5 mph 17.3 mph N/A   Overcast
11:55 AM 37.4 °F 30.3 °F 33.8 °F 87% 29.87 in 10.0 mi NE 10.4 mph - N/A   Overcast
12:15 PM 37.4 °F 29.8 °F 30.2 °F 75% 29.86 in 10.0 mi ENE 11.5 mph 18.4 mph N/A   Overcast
12:35 PM 37.4 °F 29.8 °F 32.0 °F 81% 29.86 in 10.0 mi NE 11.5 mph - N/A   Overcast
12:55 PM 37.4 °F 28.9 °F 32.0 °F 81% 29.85 in 10.0 mi NE 13.8 mph - N/A   Overcast
1:15 PM 39.2 °F 31.6 °F 33.8 °F 81% 29.85 in 10.0 mi NE 12.7 mph - N/A   Overcast
1:35 PM 39.2 °F 30.8 °F 32.0 °F 75% 29.85 in 10.0 mi NE 15.0 mph - N/A   Overcast
1:55 PM 37.4 °F 30.3 °F 32.0 °F 81% 29.85 in 10.0 mi NNE 10.4 mph - N/A   Overcast
2:15 PM 37.4 °F 30.3 °F 33.8 °F 87% 29.85 in 10.0 mi NNE 10.4 mph - N/A   Overcast
2:35 PM 37.4 °F 28.9 °F 33.8 °F 87% 29.85 in 10.0 mi NE 13.8 mph 19.6 mph N/A   Overcast
2:55 PM 37.4 °F 29.3 °F 32.0 °F 81% 29.85 in 10.0 mi NE 12.7 mph - N/A   Overcast
3:15 PM 37.4 °F 29.8 °F 33.8 °F 87% 29.84 in 10.0 mi NNE 11.5 mph 16.1 mph N/A   Overcast
3:35 PM 37.4 °F 28.9 °F 33.8 °F 87% 29.84 in 10.0 mi NE 13.8 mph 18.4 mph N/A   Overcast
3:55 PM 37.4 °F 30.8 °F 32.0 °F 81% 29.83 in 7.0 mi NNE 9.2 mph 17.3 mph N/A   Overcast
4:15 PM 35.6 °F 26.6 °F 32.0 °F 87% 29.82 in 7.0 mi NE 13.8 mph - N/A   Overcast
4:35 PM 35.6 °F 27.5 °F 33.8 °F 93% 29.82 in 8.0 mi NNE 11.5 mph 18.4 mph N/A   Overcast
4:55 PM 35.6 °F 27.5 °F 32.0 °F 87% 29.81 in 9.0 mi NNE 11.5 mph 18.4 mph N/A   Overcast
5:15 PM 35.6 °F 27.1 °F 32.0 °F 87% 29.81 in 9.0 mi North 12.7 mph 18.4 mph N/A   Overcast
5:35 PM 35.6 °F 27.1 °F 30.2 °F 81% 29.81 in 10.0 mi NNE 12.7 mph 20.7 mph N/A   Overcast
5:55 PM 35.6 °F 27.5 °F 32.0 °F 87% 29.81 in 10.0 mi NNE 11.5 mph 20.7 mph N/A   Overcast
6:15 PM 35.6 °F 27.1 °F 32.0 °F 87% 29.80 in 10.0 mi NNE 12.7 mph 18.4 mph N/A   Overcast
6:35 PM 35.6 °F 28.0 °F 32.0 °F 87% 29.81 in 9.0 mi NNE 10.4 mph - N/A   Overcast
6:55 PM 35.6 °F 27.5 °F 32.0 °F 87% 29.81 in 8.0 mi NNE 11.5 mph - N/A   Overcast
7:15 PM 35.6 °F 27.5 °F 30.2 °F 81% 29.81 in 10.0 mi NNE 11.5 mph - N/A   Overcast
7:35 PM 35.6 °F 29.2 °F 30.2 °F 81% 29.81 in 10.0 mi NNE 8.1 mph - N/A   Overcast
7:55 PM 35.6 °F 28.0 °F 32.0 °F 87% 29.80 in 10.0 mi NNE 10.4 mph 18.4 mph N/A   Overcast
8:15 PM 35.6 °F 27.1 °F 30.2 °F 81% 29.80 in 10.0 mi NNE 12.7 mph 20.7 mph N/A   Overcast
8:35 PM 35.6 °F 28.0 °F 32.0 °F 87% 29.80 in 10.0 mi North 10.4 mph 17.3 mph N/A   Overcast
8:55 PM 35.6 °F 27.5 °F 30.2 °F 81% 29.79 in 10.0 mi NNE 11.5 mph - N/A   Overcast
9:15 PM 35.6 °F 27.1 °F 30.2 °F 81% 29.78 in 10.0 mi NNE 12.7 mph 21.9 mph N/A   Overcast
9:35 PM 35.6 °F 26.6 °F 30.2 °F 81% 29.77 in 10.0 mi NNE 13.8 mph 21.9 mph N/A   Overcast
10:15 PM 35.6 °F 26.6 °F 30.2 °F 81% 29.76 in 10.0 mi NNE 13.8 mph 19.6 mph N/A   Overcast
10:35 PM 35.6 °F 26.6 °F 30.2 °F 81% 29.75 in 10.0 mi NNE 13.8 mph 28.8 mph N/A   Overcast
11:15 PM 35.6 °F 26.6 °F 30.2 °F 81% 29.73 in 10.0 mi NNE 13.8 mph 32.2 mph N/A   Overcast
11:35 PM 35.6 °F 26.6 °F 30.2 °F 81% 29.72 in 10.0 mi NNE 13.8 mph 24.2 mph N/A   Overcast
11:55 PM 35.6 °F 25.2 °F 30.2 °F 81% 29.71 in 10.0 mi NNE 18.4 mph 27.6 mph N/A   Overcast